Showing default

COSMOS 2285, 23189

Orbit data source: Space-Track

COSMOS 2285, 23189 is a payload satellite owned by TsSKB (CIS) in LEO that was launched on Tue, 02 Aug 1994 UTC via a KOSMOS 11K65M launch vehicle from the Plesetsk Missile And Space Complex (PKMTR). Payload-class satellites include a variety of spacecraft equipped with specific instruments for various scientific and technological missions. These include communications satellites like Starlink; space stations such as the ISS; scientific satellites like the Hubble; Earth observation satellites from companies like Planet Labs, Umbra, and HawkEye 360; GPS; miniature CubeSats for education and research; and military/defense satellites.

Loading next visibility...
Identifier
23189, 1994-045A
Orbit
LEO
Country
Flag of CISCIS
Related business
Manufacturer
TsSKB
Mission
Defense Imaging
Bus & Motor
OBZOR, Unknown motor
Mass
~900 kg wet, ~900 kg dry
Launch date (UTC)
1994-08-02 (31 years ago)
Launch vehicle
KOSMOS 11K65M
Launch site
Plesetsk Missile And Space Complex (PKMTR)
Object type
Payload
Rocket body
Debris
Shape & HBR
Cyl, 2.5 m
Radar Cross Section
9.978 m², Large (>1 m²)

Expand to show TLE details & history
Last TLE update: 12 hours ago

TLE from 12 hours ago
0 COSMOS 2285
1 23189U 94045A   25310.24770637  .00000029  00000-0  55928-4 0  9996
2 23189  74.0262 121.8935 0025040 170.4286   2.6663 13.72502170565809
Epoch: 2025-11-06T05:56Z
TLE epoch observation values (Epoch: 2025-11-06T05:56:41.830Z)
Latitude
6.55625°
Longitude
165.13496°
Altitude
974.089 km
Speed
7.374 km/s
True Right ascension
20h 00m 04s
True Declination
6° 31' 07"
Sunlit
Object was in daylight at epoch
Visualization orbit readout
Latitude
Unknown
Longitude
Unknown
Altitude
Unknown
Speed
Unknown
Apparent Right ascension
Unknown
Apparent Declination
Unknown
Sunlit
N/A
Visualization observer readout
Local Sidereal Time
14:04:46
Azimuth
Unknown
Elevation
Unknown
Doppler factor
Unknown
Orbital elements
Apogee altitude
1,006.743 km
Perigee altitude
969.852 km
Semi-major axis
7,366.434 km
Eccentricity
0.0025
Inclination
74.0262°
RAAN
121.8935°
Arg. of periapsis
170.4286°
True anomaly
2.67969°
Mean anomaly
2.6663°
Eccentric anomaly
2.67299°
Mean motion
3.43287 °/min
Orbital period
104.87 mins
BSTAR
0.000055928
Loading maneuver chart data...
Computing Atmospheric mass density...
Loading historical data...
Loading historical data...
Loading historical data...
Loading historical data...
Loading historical data...
Loading historical data...
Loading historical data...
Other satellites on launch #45 in the year 1994 (1994-08-02 UTC)

Documentation

Showing up to 5 results
|